Change the Weather History Date:

Wednesday, December 14, 2011

  Actual Average Record
Temperature  
Mean Temperature 32 °F -  
Max Temperature 33 °F 23 °F 50 °F (1998)
Min Temperature 32 °F 8 °F -27 °F (2010)
Degree Days  
Heating Degree Days 32    
Moisture  
Dew Point 30 °F    
Average Humidity 89    
Maximum Humidity 93    
Minimum Humidity 87    
Precipitation  
Precipitation 0.00 in - - ()
Sea Level Pressure  
Sea Level Pressure 29.86 in    
Wind  
Wind Speed 4 mph (SE)    
Max Wind Speed 8 mph    
Max Gust Speed -    
Visibility 7 miles    
Events Rain , Snow    
Averages and records for this station are not official NWS values.
T = Trace of Precipitation, MM = Missing Value Source: NWS Daily Summary

Daily Weather History Graph

Daily Weather History Graph

Search for Another Location

Airport or City:

Trip Planner

Search our weather history database for the weather conditions in past years. The results will help you decide how hot, cold, wet, or windy it might be!

Date:

Astronomy

Dec. 14, 2011 Rise Set
Actual Time 7:48 AM CST 4:15 PM CST
Civil Twilight 7:12 AM CST 4:51 PM CST
Nautical Twilight 6:33 AM CST 5:30 PM CST
Astronomical Twilight 5:55 AM CST 6:08 PM CST
Moon 8:49 PM CST (12/14) 10:21 AM CST (12/14)
Length of Visible Light 9h 38m
Length of Day
8h 26m
Waning Gibbous, 83% of the Moon is Illuminated
Dec 14
Waning Gibbous
Dec 17
Last Quarter
Dec 24
New
Jan 1
First Quarter
Jan 9
Full

Hourly Weather History & Observations

Time (CST) Temp. Windchill Dew Point Humidity Pressure Visibility Wind Dir Wind Speed Gust Speed Precip Events Conditions
12:13 AM 32.0 °F 28.7 °F 30.2 °F 93% 30.08 in 10.0 mi SSE 3.5 mph - N/A   Overcast
12:32 AM 32.0 °F 26.4 °F 30.2 °F 93% 30.08 in 10.0 mi SSE 5.8 mph - N/A   Overcast
12:53 AM 32.0 °F 26.4 °F 30.2 °F 93% 30.07 in 10.0 mi South 5.8 mph - N/A   Overcast
1:13 AM 32.0 °F 27.5 °F 30.2 °F 93% 30.06 in 7.0 mi SSE 4.6 mph - N/A   Overcast
1:32 AM 32.0 °F 26.4 °F 30.2 °F 93% 30.05 in 7.0 mi SSE 5.8 mph - N/A   Overcast
1:53 AM 32.0 °F 28.7 °F 30.2 °F 93% 30.06 in 7.0 mi SSE 3.5 mph - N/A   Overcast
2:12 AM 32.0 °F 27.5 °F 30.2 °F 93% 30.04 in 7.0 mi SE 4.6 mph - N/A   Overcast
2:32 AM 32.0 °F 27.5 °F 30.2 °F 93% 30.03 in 7.0 mi SE 4.6 mph - N/A   Overcast
2:53 AM 32.0 °F 28.7 °F 30.2 °F 93% 30.02 in 7.0 mi SE 3.5 mph - N/A   Overcast
3:13 AM 33.8 °F 28.6 °F 30.2 °F 87% 30.03 in 7.0 mi SSE 5.8 mph - N/A   Overcast
3:32 AM 33.8 °F 28.6 °F 30.2 °F 87% 30.01 in 7.0 mi SSE 5.8 mph - N/A   Overcast
3:53 AM 33.8 °F 28.6 °F 30.2 °F 87% 29.99 in 7.0 mi SSE 5.8 mph - N/A   Overcast
4:12 AM 33.8 °F 27.0 °F 30.2 °F 87% 29.98 in 5.0 mi SE 8.1 mph - N/A   Overcast
4:32 AM 33.8 °F 29.6 °F 30.2 °F 87% 29.98 in 5.0 mi SSE 4.6 mph - N/A   Overcast
4:53 AM 33.8 °F 29.6 °F 30.2 °F 87% 29.97 in 5.0 mi SSE 4.6 mph - N/A   Overcast
5:13 AM 33.8 °F 27.7 °F 30.2 °F 87% 29.95 in 5.0 mi SE 6.9 mph - N/A   Overcast
5:33 AM 33.8 °F 30.8 °F 30.2 °F 87% 29.94 in 5.0 mi SE 3.5 mph - N/A   Overcast
5:53 AM 33.8 °F 30.8 °F 30.2 °F 87% 29.96 in 5.0 mi South 3.5 mph - N/A   Overcast
6:12 AM 33.8 °F 29.6 °F 30.2 °F 87% 29.95 in 5.0 mi SSE 4.6 mph - N/A   Overcast
6:33 AM 33.8 °F 28.6 °F 30.2 °F 87% 29.94 in 5.0 mi SSE 5.8 mph - N/A   Overcast
6:52 AM 33.8 °F 30.8 °F 30.2 °F 87% 29.93 in 5.0 mi SSE 3.5 mph - N/A   Overcast
7:13 AM 33.8 °F 29.6 °F 30.2 °F 87% 29.91 in 4.0 mi SSE 4.6 mph - N/A Snow Light Snow
7:33 AM 33.8 °F 29.6 °F 30.2 °F 87% 29.91 in 4.0 mi SSE 4.6 mph - N/A Snow Light Snow
7:52 AM 32.0 °F 28.7 °F 30.2 °F 93% 29.90 in 4.0 mi SE 3.5 mph - N/A Snow Light Snow
8:13 AM 32.0 °F 27.5 °F 30.2 °F 93% 29.90 in 3.0 mi SE 4.6 mph - N/A Snow Light Snow
8:33 AM 32.0 °F 28.7 °F 30.2 °F 93% 29.89 in 4.0 mi SE 3.5 mph - N/A Snow Light Snow
8:52 AM 32.0 °F 28.7 °F 30.2 °F 93% 29.88 in 5.0 mi SE 3.5 mph - N/A   Overcast
9:13 AM 32.0 °F - 30.2 °F 93% 29.88 in 5.0 mi Calm Calm - N/A Snow Light Snow
9:33 AM 33.8 °F 30.8 °F 30.2 °F 87% 29.86 in 4.0 mi SE 3.5 mph - N/A Snow Light Snow
9:52 AM 33.8 °F - 30.2 °F 87% 29.86 in 3.0 mi Calm Calm - N/A Snow Light Snow
10:13 AM 32.0 °F - 30.2 °F 93% 29.84 in 2.0 mi Calm Calm - N/A Snow Light Snow
10:33 AM 33.8 °F - 30.2 °F 87% 29.84 in 3.0 mi Calm Calm - N/A Snow Light Snow
10:52 AM 33.8 °F 30.8 °F 30.2 °F 87% 29.84 in 10.0 mi SE 3.5 mph - N/A Snow Light Snow
11:13 AM 33.8 °F 30.8 °F 30.2 °F 87% 29.82 in 10.0 mi SE 3.5 mph - N/A   Overcast
11:32 AM 33.8 °F 27.7 °F 30.2 °F 87% 29.80 in 10.0 mi SSE 6.9 mph - N/A   Overcast
11:52 AM 33.8 °F 27.7 °F 30.2 °F 87% 29.79 in 10.0 mi SE 6.9 mph - N/A   Overcast
12:13 PM 33.8 °F 29.6 °F 30.2 °F 87% 29.77 in 10.0 mi SE 4.6 mph - N/A Rain Light Rain
12:33 PM 33.8 °F 29.6 °F 30.2 °F 87% 29.76 in 10.0 mi SE 4.6 mph - N/A Rain Light Rain
12:52 PM 33.8 °F 29.6 °F 30.2 °F 87% 29.75 in 10.0 mi SSE 4.6 mph - N/A   Overcast
1:13 PM 33.8 °F 28.6 °F 30.2 °F 87% 29.74 in 10.0 mi SSE 5.8 mph - N/A   Overcast
1:32 PM 33.8 °F 29.6 °F 30.2 °F 87% 29.72 in 10.0 mi SE 4.6 mph - N/A Rain Light Rain
1:52 PM 33.8 °F 29.6 °F 30.2 °F 87% 29.71 in 10.0 mi SE 4.6 mph - N/A   Overcast
2:13 PM 33.8 °F 29.6 °F 30.2 °F 87% 29.71 in 10.0 mi SSE 4.6 mph - N/A   Overcast
2:33 PM 33.8 °F 29.6 °F 30.2 °F 87% 29.70 in 10.0 mi SSE 4.6 mph - N/A   Overcast
2:52 PM 33.8 °F 30.8 °F 30.2 °F 87% 29.69 in 10.0 mi SE 3.5 mph - N/A   Overcast
3:13 PM 33.8 °F 30.8 °F 30.2 °F 87% 29.69 in 10.0 mi ESE 3.5 mph - N/A   Overcast
3:33 PM 33.8 °F - 30.2 °F 87% 29.69 in 10.0 mi Calm Calm - N/A   Overcast
3:52 PM 33.8 °F - 30.2 °F 87% 29.68 in 10.0 mi Calm Calm - N/A   Overcast
4:13 PM 33.8 °F - 30.2 °F 87% 29.68 in 10.0 mi Calm Calm - N/A   Overcast
4:33 PM 33.8 °F - 30.2 °F 87% 29.67 in 7.0 mi Calm Calm - N/A Snow Light Snow
4:53 PM 32.0 °F - 30.2 °F 93% 29.66 in 5.0 mi Calm Calm - N/A Rain Light Rain
5:12 PM 32.0 °F - 30.2 °F 93% 29.65 in 5.0 mi Calm Calm - N/A Rain Light Rain
5:33 PM 32.0 °F - 30.2 °F 93% 29.65 in 7.0 mi Calm Calm - N/A   Overcast
5:52 PM 32.0 °F - 30.2 °F 93% 29.65 in 5.0 mi Calm Calm - N/A   Overcast
6:12 PM 32.0 °F - 30.2 °F 93% 29.64 in 4.0 mi Calm Calm - N/A   Overcast
6:33 PM 32.0 °F - 30.2 °F 93% 29.63 in 5.0 mi Calm Calm - N/A   Overcast
6:52 PM 30.2 °F - 30.2 °F 100% 29.63 in 4.0 mi Calm Calm - N/A Snow Light Snow
7:13 PM 32.0 °F - 30.2 °F 93% 29.63 in 5.0 mi Calm Calm - N/A   Overcast
7:33 PM 30.2 °F - 30.2 °F 100% 29.63 in 3.0 mi Calm Calm - N/A Snow Light Snow
7:52 PM 30.2 °F - 30.2 °F 100% 29.62 in 3.0 mi Calm Calm - N/A Snow Light Snow
8:13 PM 30.2 °F - 30.2 °F 100% 29.61 in 2.5 mi Calm Calm - N/A Snow Light Snow
8:32 PM 30.2 °F - 30.2 °F 100% 29.60 in 2.5 mi Calm Calm - N/A   Overcast
8:52 PM 30.2 °F - 30.2 °F 100% 29.59 in 3.0 mi Calm Calm - N/A   Overcast
9:13 PM 30.2 °F - 30.2 °F 100% 29.59 in 4.0 mi Calm Calm - N/A   Overcast
9:33 PM 30.2 °F - 30.2 °F 100% 29.58 in 4.0 mi Calm Calm - N/A   Overcast
9:52 PM 30.2 °F - 30.2 °F 100% 29.58 in 3.0 mi Calm Calm - N/A Snow Light Snow
10:13 PM 30.2 °F - 30.2 °F 100% 29.57 in 4.0 mi Calm Calm - N/A   Overcast
10:32 PM 30.2 °F - 30.2 °F 100% 29.56 in 5.0 mi Calm Calm - N/A   Overcast
10:53 PM 30.2 °F - 30.2 °F 100% 29.55 in 4.0 mi Calm Calm - N/A   Overcast
11:13 PM 30.2 °F 26.7 °F 30.2 °F 100% 29.55 in 5.0 mi West 3.5 mph - N/A   Overcast
11:32 PM 30.2 °F 25.4 °F 30.2 °F 100% 29.54 in 5.0 mi WNW 4.6 mph - N/A Snow Light Snow
11:53 PM 32.0 °F 28.7 °F 30.2 °F 93% 29.54 in 5.0 mi West 3.5 mph - N/A   Overcast